SL-8 R/B (19257 NORAD) Tracking and Keplerian Element Data

This shows tracking and keplerian element data for the satellite.

Feedback or suggestion? Click here.




ElementValue
Catalog19257
NameSL-8 R/B
Epoch Orbit86344
Epoch Day12.77913091
Epoch Year2024
RAAN121.9721
Inclination74.0481
Eccentricity0.0019316
Argument of Perigee140.3412
Mean Anonmoly333.4714
Mean Motion14.3802652
Decay Rate5.22E-06
L11 19257U 88053B 24012.77913091 .00000522 00000+0 18062-3 0 9992
L22 19257 74.0481 121.9721 0019316 140.3412 333.4714 14.38026520863449



Live tracking and technical data element details for SL-8 R/B (NORAD 19257). SL-8 R/B can be tracked NOW for your location showing map with azimuth and elevation plus other details from your city location.







IsCatalogInMostPopularTable: catalog: 19257, numindb: 361
Update: records affected: 1



GetName: 19257 SL-8 R/B

Hit Count: updated at: Fri, 19 Apr 2024 12:17:02 GMT